Location: Unspecified
(51.8528°N, 0.0000°E)
Time: 03:55:41
(UTC+00:00)

FLYING LAPTOP - Visible Passes

Search period start: 05 April 2026 00:00
Search period end: 15 April 2026 00:00
Orbit: 551 x 579 km, 97.4° (Epoch: 29 March)

Date Brightness Start Highest point End Pass type
(mag) Time Alt. Az. Time Alt. Az. Time Alt. Az.
5 Apr ? 02:59:33 13° SSE 03:03:01 57° ENE 03:06:58 10° N visible
5 Apr ? 04:35:51 10° SW 04:38:27 17° W 04:41:04 10° NW visible
6 Apr ? 02:59:33 11° SSE 03:03:16 58° ENE 03:07:14 10° N visible
6 Apr ? 04:36:07 10° SW 04:38:42 17° W 04:41:18 10° NW visible
7 Apr ? 02:59:36 10° SSE 03:03:31 58° ENE 03:07:28 10° N visible
7 Apr ? 04:36:22 10° SW 04:38:56 16° W 04:41:32 10° NW visible
8 Apr ? 02:59:50 10° SSE 03:03:45 59° ENE 03:07:43 10° N visible
8 Apr ? 04:36:38 10° SW 04:39:11 16° W 04:41:46 10° NW visible
9 Apr ? 03:00:04 10° SSE 03:03:58 59° ENE 03:07:56 10° N visible
9 Apr ? 04:36:52 10° SW 04:39:25 16° W 04:42:00 10° NW visible
10 Apr ? 03:00:17 10° SSE 03:04:12 60° ENE 03:08:11 10° N visible
10 Apr ? 04:37:07 10° SW 04:39:39 16° W 04:42:12 10° NW visible
11 Apr ? 03:00:30 10° SSE 03:04:26 60° ENE 03:08:25 10° N visible
11 Apr ? 04:37:21 10° SW 04:39:52 16° W 04:42:25 10° NW visible
12 Apr ? 03:00:43 10° SSE 03:04:38 61° ENE 03:08:38 10° N visible
12 Apr ? 04:37:36 10° SW 04:40:06 16° W 04:42:37 10° NW visible
13 Apr ? 03:00:55 10° SSE 03:04:51 61° ENE 03:08:51 10° N visible
14 Apr ? 03:01:07 10° SSE 03:05:03 62° ENE 03:09:04 10° N visible
